カタログに戻る

FENGYUN 1C DEB

LostSSO
NORAD 33681·DEBRIS·🇨🇳 China

打ち上げ May 10, 1999 から Taiyuan Satellite Launch Center

Loading…

次のパス (今後24時間)

TLE

古いSource: Space-Track

元期: Jun 28, 2025, 16:43 UTC

1 33681U 99025DFS 25179.69661058  .00000826  00000-0  55307-3 0  9990
2 33681  99.0575 236.7941 0101270 139.6576 349.4128 14.01198282631533

AllMySatでFENGYUN 1C DEBをリアルタイム追跡

Download on the App Store